Regional Weather Roundup
Issued by NWS

Home | Current Version | Previous Version | Text Only | Print | Product List | Glossary On
Versions: 1 2 3 4 5 6 7 8 9 10 11 12 13 14 15 16 17 18 19 20 21 22 23 24 25 26 27 28 29 30 31 32 33 34 35 36 37 38 39 40 41 42 43 44 45 46 47 48 49 50
000
ASUS44 KJAN 312210
RWRMS

MISSISSIPPI HOURLY WEATHER ROUNDUP
NATIONAL WEATHER SERVICE JACKSON MS
500 PM CDT MON AUG 31 2015

NOTE: "FAIR: INDICATES FEW OR NO CLOUDS BELOW 12,000 FEET WITH NO
SIGNIFICANT WEATHER AND/OR OBSTRUCTIONS TO VISIBILITY.

MSZ001>002-007>008-010>013-018>021-025>028-034>036-312300-
NORTHWEST MISSISSIPPI

CITY           SKY/WX    TMP DP  RH WIND       PRES   REMARKS
CLARKSDALE     FAIR      91  68  46 E5        30.02S HX  95
CLEVELAND      FAIR      94  65  38 E8        29.99F HX  96
GREENWOOD      MOSUNNY   92  64  39 E7        30.00F HX  93
GREENVILLE     CLOUDY    90  68  48 SE9       29.99S HX  94
OLIVE BRANCH   MOSUNNY   88  68  51 E7        30.05F HX  91
OXFORD         FAIR      86  66  51 E7        30.06S
TUNICA         CLEAR     90  66  45 SE5       30.03S HX  92
$$

MSZ003>006-009-014>017-022>024-029>033-037>039-312300-
NORTHEAST MISSISSIPPI

CITY           SKY/WX    TMP DP  RH WIND       PRES   REMARKS
COLUMBUS AFB   SUNNY     87  67  52 N5        30.04S HX  90
CORINTH        FAIR      86  66  51 CALM      30.05S
GOLDN TRIANGLE MOSUNNY   88  64  45 NE9       30.04S
STARKVILLE     FAIR      88  68  51 NE7       30.04S HX  91
TUPELO         SUNNY     86  65  49 E7        30.04F
$$

MSZ040-058-312300-
CENTRAL MISSISSIPPI

CITY           SKY/WX    TMP DP  RH WIND       PRES   REMARKS
JACKSON INTL   PTSUNNY   94  59  31 CALM      30.00F HX  93
JACKSON HAWKNS PTSUNNY   93  61  34 CALM      30.00F HX  93
MERIDIAN KEY   MOSUNNY   90  68  48 SE6       30.01F HX  94
MERIDIAN NAS   MOSUNNY   90  66  45 E9        30.02F HX  92
VICKSBURG      MOSUNNY   89  63  41 SW3       30.00F HX  90
$$

MSZ059>079-312300-
SOUTH MISSISSIPPI

CITY           SKY/WX    TMP DP  RH WIND       PRES   REMARKS
BROOKHAVEN     FAIR     N/A N/A N/A CALM      30.03S
HATTIESBURG    MOSUNNY   93  63  36 VRB5      30.00F HX  94
MCCOMB         CLOUDY    91  64  40 S8        30.02S HX  92
NATCHEZ        CLOUDY    88  66  48 S7        30.03R HX  90
PINE BELT      MOSUNNY   93  61  33 NE7       30.03S HX  93
$$

MSZ080>082-312300-
COASTAL MISSISSIPPI

CITY           SKY/WX    TMP DP  RH WIND       PRES   REMARKS
BAY ST LOUIS   MOSUNNY   90  63  40 S8        30.01S HX  90
BILOXI         SUNNY     89  71  55 S10       30.01S HX  94
PASCAGOULA     SUNNY     89  70  53 S7        30.01S HX  94
GULFPORT       SUNNY     88  68  51 S10       30.01S HX  91
$$



USA.gov is the U.S. government's official web portal to all federal, state and local government web resources and services.